COSMOS 2251 DEB

Satellite information

Favourite Embed

Satellite Type and Status

DEBRISIN ORBIT

Key statistics

Satellite COSMOS 2251 DEB at a glance.

Uptime

11647

Days in orbit

Revolutions

≈ 14.4

Per day

Orbit

LEO

Low Earth Orbit

Inclination

74.1

Latest

Satellite identification and parameters

Extended collection of information and parameters for COSMOS 2251 DEB.

Object identification

Identified? True

Debris? True

Object name: COSMOS 2251 DEB

International designator: 1993-036AXK

Object number (NORAD): 36048

Object ID (CCSDS): 36048

Country: COMMONWEALTH OF INDEPENDENT STATES (CIS)

Current information (Y/N): Y

RCS size: SMALL

Orbital parameters

Period: 100.176 minutes

Inclination: 74.0572 deg

SMA: 7145.012 km

Apoapsis: 785.584 km

Periapsis: 748.171 km

RAAN: 345.182 deg

Eccentricy: 0.0026181

Argument of periapsis: 94.8398 deg

Mean anomaly: 328.2897 deg

Mean motion: 14.37468343 rev/day

Mean motion (dot): 0.0000091 rev/day2

B* drag term: 0.00031165 1/REarth

Two-line elements (TLE)

Creation date: May 6, 2025, 3:54 a.m.

Reference frame: TEME

Reference center: EARTH

Epoch: May 5, 2025, 10:42 p.m. UTC

TLE line 0: 0 COSMOS 2251 DEB

TLE line 1: 1 36048U 93036AXK 25125.94598558 .00000910 00000-0 31165-3 0 9999

TLE line 2: 2 36048 74.0572 345.1820 0026181 94.8398 328.2897 14.37468343823296

Live tracking on map

Real-time ground track for satellite COSMOS 2251 DEB.

In-orbit conjunctions

A list of the most updated potential collisions computed for object COSMOS 2251 DEB.

Target Orbit TCA Probability of collision Miss distance Type
CZ-6A DEB LEO 2025-01-29 21:52:22 0.0005173318 336.0 (m) DEBRIS
FENGYUN 1C DEB SSO 2024-11-12 00:37:17 0.000144281 209.0 (m) DEBRIS

Associated space launch

Military communications satellite. Destroyed in a collision with Iridium 33.

COSMOS 2251 DEB was lifted into orbit during the mission ‘Kosmos-3M | Strela-2M 51’, on board a Kosmos-3M space rocket.

The launch took place on June 16, 1993, 4:17 a.m. from 132/1 (132L).

For more information about the launch, click the button.

Launch to space Kosmos-3M | Strela-2M 51
Kosmos-3M | Strela-2M 51

Agency: N/A

Status: Launch Successful

Launch date: June 16, 1993, 4:17 a.m. UTC

Rocket: Kosmos-3M

Launch pad: 132/1 (132L)

Location: Plesetsk Cosmodrome, Russian Federation

...

Latest news about this satellite

There are no fresh news available about this satellite. Check back as we update our databases every day.


Newsletter sign-up

Weekly statistics, charts and insights to help you stay on top of the space industry.